Regional Weather Roundup
Issued by NWS

Home | Current Version | Previous Version | Text Only | Print | Product List | Glossary Off
Versions: 1 2 3 4 5 6 7 8 9 10 11 12 13 14 15 16 17 18 19 20 21 22 23 24 25 26 27 28 29 30 31 32 33 34 35 36 37 38 39 40 41 42 43 44 45 46 47 48 49 50

000
ASUS43 KLSX 261207
RWRMO

WEATHER SUMMARY FOR MISSOURI
NATIONAL WEATHER SERVICE SPRINGFIELD MO
600 AM CST MON JAN 26 2015

NOTE: "FAIR" INDICATES FEW OR NO CLOUDS BELOW 12,000 FEET WITH NO
       SIGNIFICANT WEATHER AND/OR OBSTRUCTIONS TO VISIBILITY.
       CURRENT SKY AND/OR WEATHER CONDITIONS ARE NOT AVAILABLE FOR
       CHILLICOTHE AND FARMINGTON.

MOZ001>031-035>038-043-044-053-054-261300-
...NORTHERN AND WESTERN MISSOURI...

CITY           SKY/WX    TMP DP  RH WIND       PRES   REMARKS
KANSAS CTY INT CLEAR     25  23  92 S5        30.01F WCI  19
6HR MIN TEMP:  23; 6HR MAX TEMP:  32;

KANSAS C DTWN  CLEAR     29  26  89 SW6       30.02F WCI  23
6HR MIN TEMP:  27; 6HR MAX TEMP:  32;

LEE`S SUMMIT   CLEAR     28  25  88 SW9       30.02F WCI  19
6HR MIN TEMP:  25; 6HR MAX TEMP:  32;

ST JOSEPH      CLEAR     24  22  91 CALM      30.02F
6HR MIN TEMP:  21; 6HR MAX TEMP:  26;

CHILLICOTHE      N/A     30  26  85 CALM      30.05R
6HR MIN TEMP:  28; 6HR MAX TEMP:  34;

KIRKSVILLE     CLOUDY    31  27  85 SW6       30.01R WCI  25
6HR MIN TEMP:  29; 6HR MAX TEMP:  31;


$$
MOZ066>068-077>081-088>096-101>105-261300-
...SOUTHWEST MISSOURI...

CITY           SKY/WX    TMP DP  RH WIND       PRES   REMARKS
SPRINGFIELD    CLOUDY    32  28  85 SW3       30.07F
6HR MIN TEMP:  32; 6HR MAX TEMP:  35;

JOPLIN         CLEAR     26  24  92 S5        30.11F WCI  20
6HR MIN TEMP:  25; 6HR MAX TEMP:  36;


$$
MOZ032>034-039>042-045>050-055>058-069>072-261300-
...CENTRAL MISSOURI...

CITY           SKY/WX    TMP DP  RH WIND       PRES   REMARKS
COLUMBIA       CLOUDY    29  27  92 SW6       30.02F WCI  23
6HR MIN TEMP:  28; 6HR MAX TEMP:  31;

JEFFERSON CITY CLOUDY    31  26  82 CALM      30.05F
6HR MIN TEMP:  31; 6HR MAX TEMP:  32;

ROLLA          CLOUDY    29  25  85 W8        30.02F WCI  21
6HR MIN TEMP:  29; 6HR MAX TEMP:  30;

SEDALIA        PTCLDY    29  25  85 SW7       30.05F WCI  22
6HR MIN TEMP:  29; 6HR MAX TEMP:  33;

WHITEMAN AFB   CLEAR     26  24  93 SW7       30.04F WCI  18
WARRENSBURG    CLEAR     27  27 100 S5        30.05F WCI  21
OSAGE BEACH    CLOUDY    32  27  80 SW5       30.06F WCI  27

$$
MOZ051-052-059>065-261300-
...EAST CENTRAL MISSOURI...

CITY           SKY/WX    TMP DP  RH WIND       PRES   REMARKS
ST LOUIS INTL  MOCLDY    27  21  80 W6        30.04F WCI  20
6HR MIN TEMP:  25; 6HR MAX TEMP:  31;

SPIRIT OF STL  PTCLDY    25  21  85 W5        30.04F WCI  19
6HR MIN TEMP:  24; 6HR MAX TEMP:  31;

ST CHARLES     MOCLDY    26  22  84 W7        30.04F WCI  18
6HR MIN TEMP:  25; 6HR MAX TEMP:  29;


$$
MOZ072>076-082>087-097>100-106>115-261300-
...SOUTH CENTRAL AND SOUTHEAST MISSOURI...

CITY           SKY/WX    TMP DP  RH WIND       PRES   REMARKS
CAPE GIRARDEAU PTCLDY    30  26  85 N6        30.05R WCI  24
6HR MIN TEMP:  29; 6HR MAX TEMP:  35;

FARMINGTON     CLOUDY    28  21  74 MISG      30.04F
6HR MIN TEMP:  28; 6HR MAX TEMP:  30;

POPLAR BLUFF   PTCLDY    34  26  72 NW8       30.05R WCI  27
6HR MIN TEMP:  33; 6HR MAX TEMP:  38;

WEST PLAINS    CLOUDY    32  27  81 NW8       30.05R WCI  25
6HR MIN TEMP:  32; 6HR MAX TEMP:  33;


$$



USA.gov is the U.S. government's official web portal to all federal, state and local government web resources and services.